Regional Weather Roundup
Issued by NWS Wakefield, VA

Home | Current Version | Previous Version | Text Only | Print | Product List | Glossary On
Versions: 1 2 3 4 5 6 7 8 9 10 11 12 13 14 15 16 17 18 19 20 21 22 23 24 25 26 27 28 29 30 31 32 33 34 35 36 37 38 39 40 41 42 43 44 45 46 47 48 49 50
000
ASUS41 KAKQ 281215
RWRAKQ

REGIONAL WEATHER ROUNDUP
NATIONAL WEATHER SERVICE WAKEFIELD VA
800 AM EDT FRI APR 28 2017

Note: "fair" indicates few or no clouds below 12,000 feet with no
significant weather and/or obstructions to visibility. * = Denotes
station may not report precipitation (e.g., rain,snow,etc.),
thunder or fog.

VAZ042-051-052>054-056-281300-
NORTHERN VIRGINIA

CITY           SKY/WX    TMP DP  RH WIND       PRES   REMARKS
WASH NATIONAL  MOSUNNY   68  63  84 S6        30.01R
DULLES         MOSUNNY   66  61  84 CALM      30.01R
FORT BELVOIR   SUNNY     66  62  85 CALM      30.00R
QUANTICO       MOSUNNY   68  63  84 NW7       30.00R
FREDERICKSBRG* SUNNY     67  65  93 CALM      30.00R
STAFFORD*      SUNNY     66  64  93 CALM      30.04R
WARRENTON      SUNNY     65  60  82 SW3       30.01R
CULPEPER*      MOSUNNY   63  62  97 CALM      30.03R
MANASSAS*        N/A     64  61  90 S5        30.02R
LEESBURG*      SUNNY     68  64  88 NW5       30.02R
WINCHESTER     MOSUNNY   63  57  82 SE3       30.02R
FRONT ROYAL*   SUNNY     64  61  88 CALM      30.02R
LURAY*         SUNNY     59  59 100 CALM      30.03R FOG
$$

VAZ048-049-060>072-079>083-281300-
CENTRAL AND SOUTH CENTRAL VIRGINIA

CITY           SKY/WX    TMP DP  RH WIND       PRES   REMARKS
RICHMOND       MOSUNNY   69  67  93 SW3       30.01R
CHESTERFIELD*  FAIR     N/A N/A N/A CALM      30.02R
PETERSBURG*    SUNNY     69  64  84 S5        30.01S
HANOVER        SUNNY     69  65  86 SW3       30.02R
TAPPAHANNOCK*  SUNNY     68  68 100 CALM      30.01R
QUINTON*       FAIR      68  68  99 CALM      30.00R
CHARLOTTSVILLE SUNNY     64  61  90 W3        30.01R
GORDONSVILLE*  SUNNY     64  62  94 S3        30.00R
ORANGE*        MOSUNNY   63  61  94 CALM      30.01R
LOUISA*        SUNNY     70  64  83 CALM      30.01R
BUMPASS*       FAIR      66  66  99 SW3       30.01R
FARMVILLE*     FOG       65  65 100 SW3       30.01R VSB<1/4
CREWE*         FAIR      68  68 100 CALM      30.02R
FORT PICKETT*  FAIR     N/A N/A N/A SW6       30.02R
CHASE CITY*    FAIR      67  66  95 CALM      30.02R
CLARKSVILLE*   FAIR      68  68 100 CALM      30.02R
SOUTH HILL*    SUNNY     68  67  95 S5        30.07S
LAWRENCEVILLE* FAIR      69  67  93 S3        30.02S
EMPORIA*         N/A     70  68  94 SE3       30.04R
$$

VAZ088>098-281300-
SOUTHEAST VIRGINIA

CITY           SKY/WX    TMP DP  RH WIND       PRES   REMARKS
NORFOLK        CLOUDY    72  69  90 S9        30.02R
VIRGINIA BEACH CLOUDY    71  69  93 SW6       30.02R
NORFOLK NAVAL  CLOUDY    72  69  90 S6        30.04R FOG
WEST POINT*    CLOUDY    70  65  85 CALM      30.02R
SALUDA*        CLOUDY    69  67  92 SW3       30.00R
NEWPORT NEWS   NOT AVBL
LANGLEY AFB    CLOUDY    70  70 100 S7        30.02R
FORT EUSTIS    CLOUDY    70  68  94 S7        30.00R
WILLIAMSBURG*  CLOUDY    72  68  88 CALM      30.03R
HR EXEC AP*    PTSUNNY   72  66  83 SW6       30.01R
FRANKLIN*      CLOUDY    70  68  95 S3        30.03R
US460-WAKEFLD  CLOUDY    70  68  93 S6        30.02R
$$

VAZ020-022-025-037-045-281300-
WEST CENTRAL AND SOUTHWEST VIRGINIA

CITY           SKY/WX    TMP DP  RH WIND       PRES   REMARKS
STAUNTON*      PTSUNNY   55  55 100 CALM      30.06R FOG
WAYNESBORO*    SUNNY     56  56 100 CALM      30.04R
HOT SPRINGS VA FOG       55  54  94 CALM      30.10R VSB<1/4
LYNCHBURG      SUNNY     60  60 100 CALM      30.04R
DANVILLE       PTSUNNY   65  65 100 W3        30.03R FOG
SOUTH BOSTON*  FAIR      66  65  95 CALM      30.03R
MARTINSVILLE   FOG       58  57  97 CALM      30.06R VSB 1/4
ROANOKE        FOG       57  57 100 CALM      30.07R VSB 1/2
BLACKSBURG     FOG       56  55  97 NW3       30.10R VSB<1/4
DUBLIN*        FOG       54  52  93 CALM      30.10R VSB<1/4
MARION*        FOG       56  55  96 CALM      30.10R VSB<1/4
HILLSVILLE*    FOG       52  52 100 CALM      30.08R VSB<1/4
RICHLANDS*     FOG       57  57 100 CALM      30.06S VSB 1/2
WISE*          MOSUNNY   59  59 100 SE3       30.07R
ABINGDON*      FOG       58  58 100 E6        30.06R VSB<1/4
$$

MDZ021>025-VAZ099-100-281300-
SOUTHERN MARYLAND AND THE DELMARVA PENINSULA

CITY           SKY/WX    TMP DP  RH WIND       PRES   REMARKS
PATUXENT RIVER CLOUDY    68  68 100 W8        30.00R
BAY BRIDGE APT SUNNY     68  61  77 W5        29.99R HAZE
LEONARDTOWN    SUNNY     64  63  94 W5        30.02R
DOVER          SUNNY     69  69 100 SW9       29.97R
GEORGETOWN     MOSUNNY   71  64  78 W8        30.00R
EASTON         MOSUNNY   68  64  88 W6        30.03R
CAMBRIDGE      SUNNY     68  66  94 SW5       30.00R
SALISBURY      CLOUDY    68  67  96 SW6       30.01R
OCEAN CITY     CLOUDY    67  63  87 SW7       30.02R
WALLOPS ISLAND LGT RAIN  64  64 100 SW6       30.02R FOG
ACCOMACK*      CLOUDY    70  66  87 SW10G16   30.01R
$$

NCZ012>017-030>032-281300-
NORTH CENTRAL AND EASTERN NORTH CAROLINA

CITY           SKY/WX    TMP DP  RH WIND       PRES   REMARKS
ROANOKE RAPIDS FAIR      70  70 100 S5        30.03R FOG
RALEIGH        MOSUNNY   71  68  90 SW8       30.04R
ELIZABETH CITY CLOUDY    73  72  96 S8        30.03R
AHOSKIE*         N/A     71  70  95 S3        30.04R
EDENTON*       CLOUDY    75  71  87 SW6       30.05R
CURRITUCK*     CLOUDY    73  73 100 S5        30.04R
KILL DEVIL HLS CLOUDY    74  72  91 CALM      30.04S
MANTEO         CLOUDY    73  71  94 S12       30.05S
CAPE HATTERAS  MOSUNNY   75  71  87 SW12      30.08R FOG
TARBORO*       NOT AVBL
GOLDSBORO      SUNNY     74  74 100 S7        30.02R
WASHINGTON     PTSUNNY   73  71  92 S6        30.05R
GREENVILLE     MOSUNNY   73  73 100 SW7       30.05R
NEW BERN       PTSUNNY   75  73  93 S9        30.07R
WILMINGTON     PTSUNNY   76  73  91 S12       30.06R
$$

VAZ048-281300-
ELSEWHERE

CITY           SKY/WX    TMP DP  RH WIND       PRES   REMARKS
HARRISBURG PA  MOSUNNY   65  63  93 NW7       29.98R
BALTIMORE      MOSUNNY   68  62  81 SW5       29.99R
ANNAPOLIS      SUNNY     70  62  76 W5        29.99R
ANDREWS AFB    SUNNY     68  61  77 SW5       30.00R
PHILADELPHIA   MOSUNNY   67  63  87 S5        29.96R
HENDERSON NC   SUNNY     66  64  91 S7        30.03R
GREENSBORO     CLOUDY    68  67  96 SW5       30.03R
ROCKY MOUNT    CLOUDY    73  72  96 S8        30.03R
$$

VAZ100-281300-
MARINE

STATION/POSITION TIME  TEMP    WIND        PRES    WAVE   SWELL
                       AIR SEA DIR/SP/G            HT/PER HT/PER
                 (UTC) (F)     (DEG/KT/KT) (MB)    (FT/S) (FT/S)
CAPE MAY NJ      1130   63 57  220/ 10/ 13 1014.7R
LEWES DE         1130   70 55  250/  7/ 10 1014.9R
15NM E FENWICK I 1050   56 52  220/  8/ 10 1015.5    5/ 9   5/ 9
OCEAN-CITY-INLET 1130   59 60  210/  6/  8 1016.1R
WACHAPREAGUE VA  1130   67 67  160/  7/ 12 1015.5R
THOMAS POINT MD  1100   66 59  250/  6/  7   N/A
GOOSES REEF MD   1140   63     270/  6/  8 1016.0R
COVE POINT MD    1130   67     270/ 10/ 15 1015.8R
SOLOMONS ISLAND  1130   67 61  280/  4/  5   N/A
BISHOPS HEAD MD  1130   64 64  220/  2/  3 1016.1R
PINEY POINT MD   1130          310/  2/  2   N/A
POTOMAC MD       1140   67     320/  6/  6 1015.0R
CAMBRIDGE MD     1130   69 63                N/A
LEWISETTA VA     1130   69 65  260/  7/ 10 1015.4R
RAPPAHANNOCK LGT 1130          180/ 14/ 15 1016.7R
STINGRAY PT      1140   67     220/  6/  6 1016.0R
YORK RVR RNG VA  1130   69     230/ 14/ 16 1015.2R
YORKTOWN VA      1130   71 65  220/  7/  9 1015.8R
JAMESTOWN VA     1140   71     210/  8/ 12   N/A
DOMINION TERM VA 1130   69     190/  7/  9 1016.4R
KIPTOPEKE VA     1130      63  210/ 12/ 15   N/A
CHES BAY BRIDGE  1130   70     220/  8/  9 1016.3R
CAPE HENRY VA    1130   70     200/  5/  8   N/A
WILLOUBY STN VA  1130   69     200/ 12/ 13 1017.2R
S CRANEY ISL VA  1130   70     200/  7/  8 1016.2R
CAPE HENRY BUOY  1142      62                N/A     4/ 8   2/11
1ST LANDING BUOY 1140   67                 1016.7R
CAPE CHARLES BUO 1121      60                N/A     3/ 8   2/11
64NM E OF VA BCH 1050   60 56  200/ 10/ 12 1017.3    5/ 8   5/ 8
DUCK PIER NC     1130   74 56  200/ 11/ 15 1016.6R
44100 DUCK FRF   1105      62                N/A     4/ 8   2/11
44056 DUCK FRF   1130      58                N/A     3/ 8   2/11
OREGON INLET NC  1130   72 71  210/ 14/ 16 1017.8R
HATTERAS NC      1130   74 70  200/  9/ 14 1018.0R
DIAMOND SHLS NC  1050   77 77  210/ 17/ 21 1018.0    5/ 8   3/ 8
CAPE LOOKOUT NC  1100   73     200/  8/ 10 1018.0R
$$



USA.gov is the U.S. government's official web portal to all federal, state and local government web resources and services.